,,,PA_Meas_PMT16A,,PR_Meas_QMR101_102,,RH_Meas_QMH101,,SR_Meas_QMS101,,TA_Meas_QMH101,,GenWind,,GenWind,
date,time,status,PA,status,PR,status,RH,status,SR,status,TA,status,DirAvg,status,SpdAvg,
2010-01-03, 00:00:05,VALID,1000.63,VALID,0,VALID,91.6317,VALID,0,VALID,23.2134,VALID,107,VALID,0.910547,
2010-01-03, 00:01:05,VALID,1000.66,VALID,0,VALID,91.6241,VALID,0,VALID,23.2329,VALID,102,VALID,1.08594,
2010-01-03, 00:02:05,VALID,1000.63,VALID,0,VALID,91.5173,VALID,0,VALID,23.2719,VALID,103,VALID,0.827734,
2010-01-03, 00:03:05,VALID,1000.63,VALID,0,VALID,91.4028,VALID,0,VALID,23.2719,VALID,106,VALID,0.922656,
2010-01-03, 00:04:05,VALID,1000.59,VALID,0,VALID,91.3266,VALID,0,VALID,23.311,VALID,106,VALID,0.605469,
2010-01-03, 00:05:05,VALID,1000.6,VALID,0,VALID,91.3647,VALID,0,VALID,23.311,VALID,105,VALID,0.795703,
2010-01-03, 00:06:05,VALID,1000.57,VALID,0,VALID,91.38,VALID,0,VALID,23.311,VALID,95,VALID,0.746094,
2010-01-03, 00:07:05,VALID,1000.59,VALID,0,VALID,91.4257,VALID,0,VALID,23.311,VALID,90,VALID,0.779297,
2010-01-03, 00:08:05,VALID,1000.57,VALID,0,VALID,91.4563,VALID,0,VALID,23.3305,VALID,91,VALID,0.455078,
2010-01-03, 00:09:05,VALID,1000.56,VALID,0,VALID,91.4563,VALID,0,VALID,23.3305,VALID,91,VALID,0.0117188,
2010-01-03, 00:10:05,VALID,1000.57,VALID,0,VALID,91.5554,VALID,0,VALID,23.3092,VALID,130,VALID,0.441016,
2010-01-03, 00:11:05,VALID,1000.55,VALID,0,VALID,91.6699,VALID,0,VALID,23.35,VALID,112,VALID,0.364453,
2010-01-03, 00:12:05,VALID,1000.5,VALID,0,VALID,91.7843,VALID,0,VALID,23.35,VALID,126,VALID,0.529688,
2010-01-03, 00:13:05,VALID,1000.49,VALID,0,VALID,91.8454,VALID,0,VALID,23.3695,VALID,120,VALID,0.603906,
2010-01-03, 00:14:05,VALID,1000.44,VALID,0,VALID,91.7843,VALID,0,VALID,23.389,VALID,127,VALID,0.345703,
2010-01-03, 00:15:05,VALID,1000.41,VALID,0,VALID,91.7691,VALID,0,VALID,23.428,VALID,148,VALID,0.560156,
2010-01-03, 00:16:05,VALID,1000.38,VALID,0,VALID,91.708,VALID,0,VALID,23.4475,VALID,174,VALID,0.564844,
2010-01-03, 00:17:05,VALID,1000.36,VALID,0,VALID,91.6241,VALID,0,VALID,23.4866,VALID,178,VALID,0.774219,
2010-01-03, 00:18:05,VALID,1000.33,VALID,0,VALID,91.5173,VALID,0,VALID,23.5061,VALID,175,VALID,0.728906,
2010-01-03, 00:19:05,VALID,1000.32,VALID,0,VALID,91.4563,VALID,0,VALID,23.5256,VALID,167,VALID,0.504687,
2010-01-03, 00:20:05,VALID,1000.29,VALID,0,VALID,91.3952,VALID,0,VALID,23.5646,VALID,167,VALID,0.347266,
2010-01-03, 00:21:05,VALID,1000.3,VALID,0,VALID,91.2884,VALID,0,VALID,23.5841,VALID,167,VALID,0,
2010-01-03, 00:22:05,VALID,1000.33,VALID,0,VALID,91.1892,VALID,0,VALID,23.5646,VALID,153,VALID,0.0976563,
2010-01-03, 00:23:05,VALID,1000.34,VALID,0,VALID,91.0443,VALID,0,VALID,23.5628,VALID,153,VALID,0.299609,
2010-01-03, 00:24:05,VALID,1000.38,VALID,0,VALID,90.9069,VALID,0,VALID,23.5841,VALID,151,VALID,0,
2010-01-03, 00:25:05,VALID,1000.41,VALID,0,VALID,90.5941,VALID,0,VALID,23.5628,VALID,133,VALID,0.657812,
2010-01-03, 00:26:05,VALID,1000.38,VALID,0,VALID,90.4797,VALID,0.112286,VALID,23.5628,VALID,146,VALID,0.541016,
2010-01-03, 00:27:05,VALID,1000.4,VALID,0,VALID,90.3576,VALID,0,VALID,23.5841,VALID,144,VALID,0.679688,
2010-01-03, 00:28:05,VALID,1000.34,VALID,0,VALID,90.2279,VALID,0,VALID,23.5841,VALID,144,VALID,0.665234,
2010-01-03, 00:29:05,VALID,1000.35,VALID,0,VALID,90.06,VALID,0,VALID,23.6232,VALID,161,VALID,0.835547,
2010-01-03, 00:30:05,VALID,1000.33,VALID,0,VALID,90.06,VALID,0,VALID,23.6427,VALID,153,VALID,0.520312,
2010-01-03, 00:31:05,VALID,1000.33,VALID,0,VALID,90.1516,VALID,0,VALID,23.6622,VALID,151,VALID,0.577734,
2010-01-03, 00:32:05,VALID,1000.33,VALID,0,VALID,90.2508,VALID,0.112286,VALID,23.6622,VALID,96,VALID,0.825781,
2010-01-03, 00:33:05,VALID,1000.31,VALID,0,VALID,90.0906,VALID,0,VALID,23.6232,VALID,109,VALID,0.819922,
2010-01-03, 00:34:05,VALID,1000.33,VALID,0,VALID,90.1134,VALID,0,VALID,23.6427,VALID,108,VALID,0.945703,
2010-01-03, 00:35:05,VALID,1000.35,VALID,0,VALID,90.2584,VALID,0,VALID,23.6427,VALID,108,VALID,0.723047,
2010-01-03, 00:36:05,VALID,1000.34,VALID,0,VALID,90.5178,VALID,0,VALID,23.6622,VALID,107,VALID,0.733984,
2010-01-03, 00:37:05,VALID,1000.35,VALID,0,VALID,90.7162,VALID,0,VALID,23.6427,VALID,107,VALID,0.616016,
2010-01-03, 00:38:05,VALID,1000.38,VALID,0,VALID,90.8993,VALID,0,VALID,23.6622,VALID,105,VALID,0.493359,
2010-01-03, 00:39:05,VALID,1000.34,VALID,0,VALID,91.0748,VALID,0,VALID,23.6409,VALID,94,VALID,0.0742188,
2010-01-03, 00:40:05,VALID,1000.37,VALID,0,VALID,91.2884,VALID,0,VALID,23.6622,VALID,87,VALID,0,
2010-01-03, 00:41:05,VALID,1000.32,VALID,0,VALID,91.4181,VALID,0,VALID,23.6817,VALID,84,VALID,0,
2010-01-03, 00:42:05,VALID,1000.32,VALID,0,VALID,91.4868,VALID,0,VALID,23.6799,VALID,82,VALID,0,
2010-01-03, 00:43:05,VALID,1000.33,VALID,0,VALID,91.4791,VALID,0,VALID,23.6604,VALID,39,VALID,0,
2010-01-03, 00:44:05,VALID,1000.32,VALID,0,VALID,91.4791,VALID,0,VALID,23.6604,VALID,21,VALID,0,
2010-01-03, 00:45:05,VALID,1000.3,VALID,0,VALID,91.4944,VALID,0,VALID,23.6622,VALID,17,VALID,0,
2010-01-03, 00:46:05,VALID,1000.3,VALID,0,VALID,91.5249,VALID,0,VALID,23.6622,VALID,15,VALID,0,
2010-01-03, 00:47:05,VALID,1000.28,VALID,0,VALID,91.586,VALID,0,VALID,23.6427,VALID,15,VALID,0,
2010-01-03, 00:48:05,VALID,1000.31,VALID,0,VALID,91.6775,VALID,0,VALID,23.6232,VALID,15,VALID,0,
2010-01-03, 00:49:05,VALID,1000.26,VALID,0,VALID,91.7614,VALID,0,VALID,23.5823,VALID,15,VALID,0,
2010-01-03, 00:50:05,VALID,1000.24,VALID,0,VALID,91.8454,VALID,0,VALID,23.5823,VALID,15,VALID,0,
2010-01-03, 00:51:05,VALID,1000.21,VALID,0,VALID,91.8683,VALID,0.112286,VALID,23.5841,VALID,15,VALID,0,
2010-01-03, 00:52:05,VALID,1000.15,VALID,0,VALID,91.914,VALID,0,VALID,23.5841,VALID,15,VALID,0,
2010-01-03, 00:53:05,VALID,1000.14,VALID,0,VALID,91.9827,VALID,0,VALID,23.5841,VALID,15,VALID,0,
2010-01-03, 00:54:05,VALID,1000.08,VALID,0,VALID,92.059,VALID,0,VALID,23.5646,VALID,15,VALID,0,
2010-01-03, 00:55:05,VALID,1000.08,VALID,0,VALID,92.1734,VALID,0,VALID,23.5646,VALID,15,VALID,0,
2010-01-03, 00:56:05,VALID,1000.05,VALID,0,VALID,92.2574,VALID,0,VALID,23.5646,VALID,36,VALID,0,
2010-01-03, 00:57:05,VALID,1000.03,VALID,0,VALID,92.1429,VALID,0,VALID,23.5646,VALID,129,VALID,0,
2010-01-03, 00:58:05,VALID,1000.05,VALID,0,VALID,91.9445,VALID,0,VALID,23.5841,VALID,131,VALID,0,
2010-01-03, 00:59:05,VALID,1000.03,VALID,0,VALID,91.4715,VALID,0,VALID,23.5628,VALID,131,VALID,0,
2010-01-03, 01:00:05,VALID,1000.02,VALID,0,VALID,91.0671,VALID,0,VALID,23.5823,VALID,130,VALID,0,
2010-01-03, 01:01:05,VALID,1000.04,VALID,0,VALID,90.7467,VALID,0,VALID,23.6214,VALID,130,VALID,0,
2010-01-03, 01:02:05,VALID,1000.06,VALID,0,VALID,90.5102,VALID,0,VALID,23.6427,VALID,136,VALID,0,
2010-01-03, 01:03:05,VALID,1000.09,VALID,0,VALID,90.1897,VALID,0,VALID,23.6409,VALID,136,VALID,0,
2010-01-03, 01:04:05,VALID,1000.08,VALID,0,VALID,90.0982,VALID,0,VALID,23.6622,VALID,159,VALID,0,
2010-01-03, 01:05:05,VALID,1000.1,VALID,0,VALID,89.732,VALID,0,VALID,23.6427,VALID,159,VALID,0,
2010-01-03, 01:06:05,VALID,1000.06,VALID,0,VALID,89.526,VALID,0,VALID,23.6622,VALID,158,VALID,0,
2010-01-03, 01:07:05,VALID,1000.1,VALID,0,VALID,89.3123,VALID,0,VALID,23.6817,VALID,156,VALID,0,
2010-01-03, 01:08:05,VALID,1000.1,VALID,0,VALID,89.2818,VALID,0,VALID,23.6817,VALID,145,VALID,0,
2010-01-03, 01:09:05,VALID,1000.13,VALID,0,VALID,89.2589,VALID,0,VALID,23.6799,VALID,135,VALID,0,
2010-01-03, 01:10:05,VALID,1000.12,VALID,0,VALID,89.3276,VALID,0,VALID,23.6817,VALID,132,VALID,0,
2010-01-03, 01:11:05,VALID,1000.11,VALID,0,VALID,89.381,VALID,0,VALID,23.6409,VALID,128,VALID,0,
2010-01-03, 01:12:05,VALID,1000.12,VALID,0,VALID,89.442,VALID,0,VALID,23.6427,VALID,111,VALID,0.525781,
2010-01-03, 01:13:05,VALID,1000.11,VALID,0,VALID,89.5641,VALID,0,VALID,23.6232,VALID,111,VALID,0.267578,
2010-01-03, 01:14:05,VALID,1000.09,VALID,0,VALID,89.6938,VALID,0,VALID,23.6019,VALID,111,VALID,0,
2010-01-03, 01:15:05,VALID,1000.08,VALID,0,VALID,89.7625,VALID,0,VALID,23.6019,VALID,111,VALID,0,
2010-01-03, 01:16:05,VALID,1000.04,VALID,0,VALID,89.9532,VALID,0,VALID,23.5823,VALID,111,VALID,0,
2010-01-03, 01:17:05,VALID,1000.03,VALID,0,VALID,90.0753,VALID,0,VALID,23.5823,VALID,111,VALID,0,
2010-01-03, 01:18:05,VALID,999.983,VALID,0,VALID,90.2203,VALID,0,VALID,23.5841,VALID,111,VALID,0,
2010-01-03, 01:19:05,VALID,999.996,VALID,0,VALID,90.2431,VALID,0,VALID,23.5646,VALID,111,VALID,0,
2010-01-03, 01:20:05,VALID,999.964,VALID,0,VALID,90.3347,VALID,0,VALID,23.5433,VALID,111,VALID,0,
2010-01-03, 01:21:05,VALID,999.933,VALID,0,VALID,90.4644,VALID,0,VALID,23.5646,VALID,111,VALID,0,
2010-01-03, 01:22:05,VALID,999.922,VALID,0,VALID,90.5483,VALID,0,VALID,23.5433,VALID,111,VALID,0,
2010-01-03, 01:23:05,VALID,999.935,VALID,0,VALID,90.6704,VALID,0.112286,VALID,23.5646,VALID,111,VALID,0,
2010-01-03, 01:24:05,VALID,999.911,VALID,0,VALID,90.7085,VALID,0,VALID,23.5451,VALID,111,VALID,0,
2010-01-03, 01:25:05,VALID,999.888,VALID,0,VALID,90.8077,VALID,0,VALID,23.5646,VALID,112,VALID,0,
2010-01-03, 01:26:05,VALID,999.881,VALID,0,VALID,90.8993,VALID,0,VALID,23.5433,VALID,143,VALID,0.754687,
2010-01-03, 01:27:05,VALID,999.836,VALID,0,VALID,90.7849,VALID,0,VALID,23.5646,VALID,143,VALID,0.704297,
2010-01-03, 01:28:05,VALID,999.852,VALID,0,VALID,90.4873,VALID,0,VALID,23.5823,VALID,144,VALID,0.528906,
2010-01-03, 01:29:05,VALID,999.866,VALID,0,VALID,90.4568,VALID,0,VALID,23.5841,VALID,144,VALID,0.227734,
2010-01-03, 01:30:05,VALID,999.841,VALID,0,VALID,90.5483,VALID,0,VALID,23.5628,VALID,144,VALID,0.125,
2010-01-03, 01:31:05,VALID,999.878,VALID,0,VALID,90.5941,VALID,0,VALID,23.5628,VALID,144,VALID,0,
2010-01-03, 01:32:05,VALID,999.871,VALID,0,VALID,90.6857,VALID,0,VALID,23.5433,VALID,144,VALID,0,
2010-01-03, 01:33:05,VALID,999.87,VALID,0,VALID,90.7391,VALID,0,VALID,23.5628,VALID,144,VALID,0.264844,
2010-01-03, 01:34:05,VALID,999.878,VALID,0,VALID,90.762,VALID,0.112286,VALID,23.5646,VALID,143,VALID,0.205859,
2010-01-03, 01:35:05,VALID,999.879,VALID,0,VALID,90.8688,VALID,0,VALID,23.5451,VALID,129,VALID,0.280469,
2010-01-03, 01:36:05,VALID,999.853,VALID,0,VALID,90.9298,VALID,0,VALID,23.5451,VALID,129,VALID,0.0433594,
2010-01-03, 01:37:05,VALID,999.863,VALID,0,VALID,90.9298,VALID,0.112286,VALID,23.5451,VALID,129,VALID,0.0046875,
2010-01-03, 01:38:05,VALID,999.864,VALID,0,VALID,91.0443,VALID,0,VALID,23.5061,VALID,17,VALID,0.492969,
2010-01-03, 01:39:05,VALID,999.862,VALID,0,VALID,91.2655,VALID,0,VALID,23.5061,VALID,12,VALID,0.467578,
2010-01-03, 01:40:05,VALID,999.855,VALID,0,VALID,91.3647,VALID,0,VALID,23.5061,VALID,12,VALID,0.271094,
2010-01-03, 01:41:05,VALID,999.83,VALID,0,VALID,91.38,VALID,0,VALID,23.4866,VALID,12,VALID,0,
2010-01-03, 01:42:05,VALID,999.818,VALID,0,VALID,91.441,VALID,0,VALID,23.5061,VALID,12,VALID,0.0917969,
2010-01-03, 01:43:05,VALID,999.798,VALID,0,VALID,91.5249,VALID,0,VALID,23.5061,VALID,12,VALID,0,
2010-01-03, 01:44:05,VALID,999.788,VALID,0,VALID,91.586,VALID,0,VALID,23.4866,VALID,12,VALID,0,
2010-01-03, 01:45:05,VALID,999.782,VALID,0,VALID,91.647,VALID,0,VALID,23.5061,VALID,12,VALID,0,
2010-01-03, 01:46:05,VALID,999.79,VALID,0,VALID,91.8072,VALID,0,VALID,23.4866,VALID,12,VALID,0,
2010-01-03, 01:47:05,VALID,999.747,VALID,0,VALID,91.8683,VALID,0,VALID,23.4866,VALID,12,VALID,0,
2010-01-03, 01:48:05,VALID,999.77,VALID,0,VALID,92.0285,VALID,0,VALID,23.4866,VALID,12,VALID,0,
2010-01-03, 01:49:05,VALID,999.74,VALID,0,VALID,92.204,VALID,0,VALID,23.5256,VALID,12,VALID,0,
2010-01-03, 01:50:05,VALID,999.734,VALID,0,VALID,92.2268,VALID,0,VALID,23.5256,VALID,12,VALID,0,
2010-01-03, 01:51:05,VALID,999.762,VALID,0,VALID,92.2268,VALID,0,VALID,23.5451,VALID,12,VALID,0,
2010-01-03, 01:52:05,VALID,999.773,VALID,0,VALID,92.2574,VALID,0,VALID,23.5646,VALID,12,VALID,0,
2010-01-03, 01:53:05,VALID,999.768,VALID,0,VALID,92.2345,VALID,0,VALID,23.5823,VALID,12,VALID,0,
2010-01-03, 01:54:05,VALID,999.781,VALID,0,VALID,92.2345,VALID,0,VALID,23.6232,VALID,12,VALID,0,
2010-01-03, 01:55:05,VALID,999.771,VALID,0,VALID,92.1506,VALID,0,VALID,23.6232,VALID,12,VALID,0.478516,
2010-01-03, 01:56:05,VALID,999.777,VALID,0,VALID,92.0056,VALID,0,VALID,23.6232,VALID,130,VALID,0.54375,
2010-01-03, 01:57:05,VALID,999.785,VALID,0,VALID,91.914,VALID,0,VALID,23.6622,VALID,164,VALID,0.583203,
2010-01-03, 01:58:05,VALID,999.782,VALID,0,VALID,91.7385,VALID,0,VALID,23.7012,VALID,161,VALID,0.642187,
2010-01-03, 01:59:05,VALID,999.748,VALID,0,VALID,91.4639,VALID,0,VALID,23.7012,VALID,143,VALID,0.660547,
2010-01-03, 02:00:05,VALID,999.763,VALID,0,VALID,91.2121,VALID,0,VALID,23.7402,VALID,153,VALID,0.846484,
2010-01-03, 02:01:05,VALID,999.71,VALID,0,VALID,90.2737,VALID,0,VALID,23.7402,VALID,168,VALID,1.20781,
2010-01-03, 02:02:05,VALID,999.683,VALID,0,VALID,89.8388,VALID,0,VALID,23.7988,VALID,167,VALID,0.967969,
2010-01-03, 02:03:05,VALID,999.694,VALID,0,VALID,89.4115,VALID,0,VALID,23.8183,VALID,159,VALID,0.967188,
2010-01-03, 02:04:05,VALID,999.623,VALID,0,VALID,89.1826,VALID,0,VALID,23.8378,VALID,160,VALID,0.852344,
2010-01-03, 02:05:05,VALID,999.651,VALID,0,VALID,88.9843,VALID,0,VALID,23.8573,VALID,160,VALID,0.801562,
2010-01-03, 02:06:05,VALID,999.647,VALID,0,VALID,88.9461,VALID,0,VALID,23.8573,VALID,160,VALID,0.584375,
2010-01-03, 02:07:05,VALID,999.627,VALID,0,VALID,88.9995,VALID,0,VALID,23.8555,VALID,160,VALID,0.453906,
2010-01-03, 02:08:05,VALID,999.63,VALID,0,VALID,89.0911,VALID,0,VALID,23.8378,VALID,160,VALID,0,
2010-01-03, 02:09:05,VALID,999.638,VALID,0,VALID,89.2284,VALID,0,VALID,23.8378,VALID,160,VALID,0,
2010-01-03, 02:10:05,VALID,999.647,VALID,0,VALID,89.3428,VALID,0,VALID,23.8183,VALID,160,VALID,0,
2010-01-03, 02:11:05,VALID,999.634,VALID,0,VALID,89.4726,VALID,0,VALID,23.7988,VALID,155,VALID,0,
2010-01-03, 02:12:05,VALID,999.599,VALID,0,VALID,89.4954,VALID,0,VALID,23.7793,VALID,144,VALID,0,
2010-01-03, 02:13:05,VALID,999.616,VALID,0,VALID,89.5412,VALID,0,VALID,23.7597,VALID,144,VALID,0,
2010-01-03, 02:14:05,VALID,999.596,VALID,0,VALID,89.7091,VALID,0,VALID,23.7402,VALID,142,VALID,0,
2010-01-03, 02:15:05,VALID,999.58,VALID,0,VALID,89.8846,VALID,0,VALID,23.7207,VALID,139,VALID,0,
2010-01-03, 02:16:05,VALID,999.545,VALID,0,VALID,90.0448,VALID,0,VALID,23.7012,VALID,139,VALID,1.14336,
2010-01-03, 02:17:05,VALID,999.558,VALID,0,VALID,90.144,VALID,0,VALID,23.6817,VALID,139,VALID,1.01094,
2010-01-03, 02:18:05,VALID,999.573,VALID,0,VALID,90.1516,VALID,0,VALID,23.6622,VALID,142,VALID,0.948828,
2010-01-03, 02:19:05,VALID,999.592,VALID,0,VALID,90.266,VALID,0,VALID,23.6622,VALID,143,VALID,1.03906,
2010-01-03, 02:20:05,VALID,999.59,VALID,0,VALID,90.411,VALID,0,VALID,23.6622,VALID,140,VALID,1.14102,
2010-01-03, 02:21:05,VALID,999.558,VALID,0,VALID,90.4263,VALID,0,VALID,23.6622,VALID,138,VALID,1.14922,
2010-01-03, 02:22:05,VALID,999.545,VALID,0,VALID,90.4186,VALID,0,VALID,23.6427,VALID,134,VALID,0.975391,
2010-01-03, 02:23:05,VALID,999.538,VALID,0,VALID,90.4415,VALID,0,VALID,23.6214,VALID,136,VALID,1.22422,
2010-01-03, 02:24:05,VALID,999.517,VALID,0,VALID,90.3881,VALID,0,VALID,23.6427,VALID,133,VALID,1.07773,
2010-01-03, 02:25:05,VALID,999.524,VALID,0,VALID,90.3957,VALID,0,VALID,23.6622,VALID,134,VALID,1.19687,
2010-01-03, 02:26:05,VALID,999.51,VALID,0,VALID,90.3576,VALID,0,VALID,23.6604,VALID,130,VALID,1.06875,
2010-01-03, 02:27:05,VALID,999.513,VALID,0,VALID,90.3576,VALID,0,VALID,23.6622,VALID,128,VALID,1.08008,
2010-01-03, 02:28:05,VALID,999.515,VALID,0,VALID,90.3652,VALID,0,VALID,23.6817,VALID,138,VALID,1.26016,
2010-01-03, 02:29:05,VALID,999.519,VALID,0,VALID,90.3957,VALID,0,VALID,23.7012,VALID,136,VALID,1.29648,
2010-01-03, 02:30:05,VALID,999.543,VALID,0,VALID,90.3042,VALID,0,VALID,23.7012,VALID,130,VALID,1.00078,
2010-01-03, 02:31:05,VALID,999.563,VALID,0,VALID,90.2966,VALID,0,VALID,23.7207,VALID,140,VALID,1.3418,
2010-01-03, 02:32:05,VALID,999.558,VALID,0,VALID,90.3271,VALID,0,VALID,23.7207,VALID,142,VALID,1.16094,
2010-01-03, 02:33:05,VALID,999.582,VALID,0,VALID,90.2966,VALID,0,VALID,23.7207,VALID,136,VALID,1.30234,
2010-01-03, 02:34:05,VALID,999.586,VALID,0,VALID,90.3957,VALID,0,VALID,23.7207,VALID,135,VALID,1.3707,
2010-01-03, 02:35:05,VALID,999.599,VALID,0,VALID,90.4034,VALID,0,VALID,23.7207,VALID,133,VALID,1.06367,
2010-01-03, 02:36:05,VALID,999.59,VALID,0,VALID,90.3805,VALID,0,VALID,23.6994,VALID,138,VALID,1.12461,
2010-01-03, 02:37:05,VALID,999.62,VALID,0,VALID,90.4797,VALID,0,VALID,23.7012,VALID,132,VALID,1.04141,
2010-01-03, 02:38:04,VALID,999.62,VALID,0,VALID,90.5712,VALID,0,VALID,23.7012,VALID,133,VALID,1.25703,
2010-01-03, 02:39:04,VALID,999.597,VALID,0,VALID,90.678,VALID,0,VALID,23.7012,VALID,130,VALID,1.325,
2010-01-03, 02:40:04,VALID,999.596,VALID,0,VALID,90.6246,VALID,0,VALID,23.7207,VALID,137,VALID,0.873828,
2010-01-03, 02:41:04,VALID,999.575,VALID,0,VALID,90.6094,VALID,0,VALID,23.7012,VALID,132,VALID,0.974219,
2010-01-03, 02:42:04,VALID,999.565,VALID,0,VALID,90.6399,VALID,0,VALID,23.7012,VALID,122,VALID,0.779297,
2010-01-03, 02:43:04,VALID,999.579,VALID,0,VALID,90.6704,VALID,0,VALID,23.6817,VALID,123,VALID,0.371875,
2010-01-03, 02:44:04,VALID,999.539,VALID,0,VALID,90.6933,VALID,0,VALID,23.6817,VALID,120,VALID,0.279297,
2010-01-03, 02:45:04,VALID,999.516,VALID,0,VALID,90.6475,VALID,0,VALID,23.6427,VALID,32,VALID,0,
2010-01-03, 02:46:04,VALID,999.504,VALID,0,VALID,90.5712,VALID,0,VALID,23.6019,VALID,18,VALID,0,
2010-01-03, 02:47:04,VALID,999.464,VALID,0,VALID,90.5407,VALID,0,VALID,23.5841,VALID,17,VALID,0,
2010-01-03, 02:48:04,VALID,999.436,VALID,0,VALID,90.7543,VALID,0,VALID,23.5451,VALID,17,VALID,0,
2010-01-03, 02:49:04,VALID,999.397,VALID,0,VALID,91.0443,VALID,0,VALID,23.5256,VALID,17,VALID,0,
2010-01-03, 02:50:04,VALID,999.38,VALID,0,VALID,91.1968,VALID,0,VALID,23.5061,VALID,17,VALID,0,
2010-01-03, 02:51:04,VALID,999.371,VALID,0,VALID,91.296,VALID,0,VALID,23.5061,VALID,17,VALID,0,
2010-01-03, 02:52:04,VALID,999.349,VALID,0,VALID,91.3723,VALID,0,VALID,23.5061,VALID,17,VALID,0,
2010-01-03, 02:53:04,VALID,999.321,VALID,0,VALID,91.3952,VALID,0,VALID,23.4866,VALID,17,VALID,0,
2010-01-03, 02:54:04,VALID,999.328,VALID,0,VALID,91.4563,VALID,0,VALID,23.4866,VALID,17,VALID,0,
2010-01-03, 02:55:04,VALID,999.348,VALID,0,VALID,91.5554,VALID,0,VALID,23.4671,VALID,20,VALID,0,
2010-01-03, 02:56:04,VALID,999.349,VALID,0,VALID,91.6394,VALID,0,VALID,23.4866,VALID,22,VALID,0,
2010-01-03, 02:57:04,VALID,999.318,VALID,0,VALID,91.6165,VALID,0,VALID,23.4671,VALID,56,VALID,0,
2010-01-03, 02:58:04,VALID,999.331,VALID,0,VALID,91.5631,VALID,0,VALID,23.4671,VALID,57,VALID,0,
2010-01-03, 02:59:04,VALID,999.297,VALID,0,VALID,91.5783,VALID,0,VALID,23.4671,VALID,101,VALID,0,
2010-01-03, 03:00:04,VALID,999.298,VALID,0,VALID,91.647,VALID,0,VALID,23.4866,VALID,109,VALID,0,
2010-01-03, 03:01:04,VALID,999.28,VALID,0,VALID,91.6851,VALID,0,VALID,23.5061,VALID,109,VALID,0,
2010-01-03, 03:02:04,VALID,999.292,VALID,0,VALID,91.7004,VALID,0,VALID,23.5061,VALID,109,VALID,0,
2010-01-03, 03:03:04,VALID,999.297,VALID,0,VALID,91.6546,VALID,0.112286,VALID,23.5256,VALID,109,VALID,0,
2010-01-03, 03:04:04,VALID,999.306,VALID,0,VALID,91.4791,VALID,0,VALID,23.5061,VALID,109,VALID,0,
2010-01-03, 03:05:04,VALID,999.293,VALID,0,VALID,91.5478,VALID,0,VALID,23.5061,VALID,109,VALID,0,
2010-01-03, 03:06:04,VALID,999.321,VALID,0,VALID,91.6546,VALID,0,VALID,23.5256,VALID,29,VALID,0,
2010-01-03, 03:07:04,VALID,999.306,VALID,0,VALID,91.2274,VALID,0.112286,VALID,23.4671,VALID,347,VALID,0.629687,
2010-01-03, 03:08:04,VALID,999.311,VALID,0,VALID,91.1053,VALID,0,VALID,23.4085,VALID,347,VALID,0.518359,
2010-01-03, 03:09:04,VALID,999.259,VALID,0,VALID,91.3037,VALID,0,VALID,23.3695,VALID,340,VALID,0.592969,
2010-01-03, 03:10:04,VALID,999.281,VALID,0,VALID,91.5478,VALID,0,VALID,23.3305,VALID,340,VALID,0.557422,
2010-01-03, 03:11:04,VALID,999.254,VALID,0,VALID,91.5631,VALID,0,VALID,23.2915,VALID,335,VALID,0.482422,
2010-01-03, 03:12:04,VALID,999.301,VALID,0,VALID,91.7309,VALID,0,VALID,23.2524,VALID,335,VALID,0.595703,
2010-01-03, 03:13:04,VALID,999.3,VALID,0,VALID,91.8377,VALID,0,VALID,23.2134,VALID,336,VALID,0.700391,
2010-01-03, 03:14:04,VALID,999.32,VALID,0,VALID,91.9293,VALID,0,VALID,23.1744,VALID,327,VALID,0.545703,
2010-01-03, 03:15:04,VALID,999.299,VALID,0,VALID,92.1658,VALID,0,VALID,23.1744,VALID,307,VALID,0.519531,
2010-01-03, 03:16:04,VALID,999.31,VALID,0,VALID,92.326,VALID,0,VALID,23.1549,VALID,305,VALID,0.319141,
2010-01-03, 03:17:04,VALID,999.279,VALID,0,VALID,92.3871,VALID,0,VALID,23.1354,VALID,305,VALID,0,
2010-01-03, 03:18:04,VALID,999.294,VALID,0,VALID,92.4557,VALID,0,VALID,23.1159,VALID,305,VALID,0,
2010-01-03, 03:19:04,VALID,999.259,VALID,0,VALID,92.5854,VALID,0,VALID,23.1159,VALID,305,VALID,0,
2010-01-03, 03:20:04,VALID,999.301,VALID,0,VALID,92.6617,VALID,0,VALID,23.1354,VALID,305,VALID,0,
2010-01-03, 03:21:04,VALID,999.297,VALID,0,VALID,92.7151,VALID,0,VALID,23.1159,VALID,305,VALID,0,
2010-01-03, 03:22:04,VALID,999.319,VALID,0,VALID,92.677,VALID,0,VALID,23.0964,VALID,305,VALID,0,
2010-01-03, 03:23:04,VALID,999.333,VALID,0,VALID,92.7762,VALID,0,VALID,23.0769,VALID,305,VALID,0,
2010-01-03, 03:24:04,VALID,999.357,VALID,0,VALID,92.8143,VALID,0,VALID,23.0769,VALID,305,VALID,0,
2010-01-03, 03:25:04,VALID,999.349,VALID,0,VALID,92.7151,VALID,0,VALID,23.0378,VALID,305,VALID,0,
2010-01-03, 03:26:04,VALID,999.36,VALID,0,VALID,92.9898,VALID,0,VALID,23.0769,VALID,305,VALID,0,
2010-01-03, 03:27:04,VALID,999.377,VALID,0,VALID,93.1577,VALID,0,VALID,23.1549,VALID,237,VALID,0,
2010-01-03, 03:28:04,VALID,999.4,VALID,0,VALID,93.2721,VALID,0,VALID,23.2134,VALID,162,VALID,0.68125,
2010-01-03, 03:29:04,VALID,999.396,VALID,0,VALID,93.2568,VALID,0,VALID,23.2329,VALID,159,VALID,0.71875,
2010-01-03, 03:30:04,VALID,999.433,VALID,0,VALID,93.1348,VALID,0,VALID,23.2719,VALID,159,VALID,0.690234,
2010-01-03, 03:31:04,VALID,999.454,VALID,0,VALID,92.9135,VALID,0,VALID,23.2507,VALID,159,VALID,0.503125,
2010-01-03, 03:32:04,VALID,999.44,VALID,0,VALID,92.8067,VALID,0,VALID,23.2915,VALID,138,VALID,0.648828,
2010-01-03, 03:33:04,VALID,999.451,VALID,0,VALID,92.7991,VALID,0,VALID,23.311,VALID,134,VALID,0.675391,
2010-01-03, 03:34:04,VALID,999.484,VALID,0,VALID,92.5931,VALID,0,VALID,23.3305,VALID,132,VALID,0.794531,
2010-01-03, 03:35:04,VALID,999.46,VALID,0,VALID,92.5473,VALID,0,VALID,23.35,VALID,132,VALID,0.786719,
2010-01-03, 03:36:04,VALID,999.46,VALID,0,VALID,92.3871,VALID,0,VALID,23.35,VALID,132,VALID,0.738281,
2010-01-03, 03:37:04,VALID,999.444,VALID,0,VALID,92.4176,VALID,0,VALID,23.389,VALID,132,VALID,0.708594,
2010-01-03, 03:38:04,VALID,999.397,VALID,0,VALID,92.3489,VALID,0,VALID,23.389,VALID,132,VALID,0.783203,
2010-01-03, 03:39:04,VALID,999.351,VALID,0,VALID,92.5091,VALID,0,VALID,23.428,VALID,132,VALID,0.744141,
2010-01-03, 03:40:04,VALID,999.361,VALID,0,VALID,92.3337,VALID,0,VALID,23.4671,VALID,132,VALID,0.838281,
2010-01-03, 03:41:04,VALID,999.356,VALID,0,VALID,92.2879,VALID,0,VALID,23.4458,VALID,132,VALID,0.702344,
2010-01-03, 03:42:04,VALID,999.349,VALID,0,VALID,92.326,VALID,0,VALID,23.5061,VALID,132,VALID,0.450781,
2010-01-03, 03:43:04,VALID,999.389,VALID,0,VALID,92.2574,VALID,0,VALID,23.4848,VALID,132,VALID,0.367188,
2010-01-03, 03:44:04,VALID,999.388,VALID,0,VALID,92.1734,VALID,0.112286,VALID,23.5043,VALID,132,VALID,0,
2010-01-03, 03:45:04,VALID,999.378,VALID,0,VALID,91.8148,VALID,0.112286,VALID,23.4866,VALID,132,VALID,0,
2010-01-03, 03:46:04,VALID,999.376,VALID,0,VALID,90.7543,VALID,0,VALID,23.3695,VALID,332,VALID,0.976563,
2010-01-03, 03:47:04,VALID,999.405,VALID,0,VALID,90.8611,VALID,0.112286,VALID,23.2507,VALID,330,VALID,1.0875,
2010-01-03, 03:48:04,VALID,999.402,VALID,0,VALID,91.2579,VALID,0,VALID,23.1744,VALID,330,VALID,0.833203,
2010-01-03, 03:49:04,VALID,999.401,VALID,0,VALID,91.5936,VALID,0,VALID,23.1354,VALID,330,VALID,0.682031,
2010-01-03, 03:50:04,VALID,999.384,VALID,0,VALID,91.7691,VALID,0,VALID,23.0556,VALID,330,VALID,0.369531,
2010-01-03, 03:51:04,VALID,999.383,VALID,0,VALID,92.0819,VALID,0,VALID,23.0378,VALID,314,VALID,0.441016,